sat.trackr.live / text

‹ back to catalog

STARLINK-30996

NORAD 59023 · 2024-038A

PAYLOAD ACTIVE UNKNOWN

§ Identity

Operator
Country
US
Launch date
2024-02-25
Launch site
AFETR
Launch vehicle
Mass (kg)
RCS (m²)

Purposes: comms

External: N2YO · Heavens-Above · Gunter

§ Orbital elements

Epoch: 2026-09-20T13:54:37.969632Z

Period
94.27 min
Inclination
43.0040°
Eccentricity
0.0001319
Mean motion
15.27577375 rev/d
Perigee alt
482.2 km
Apogee alt
484.0 km
Semi-major
6,861.2 km
B*
7.4669e-6
RAAN
6.4234°
Arg perigee
275.4293°
Mean anomaly
84.6408°
Rev number
14,593

§ Raw data

STARLINK-309961 59023U 24038A   26263.57960613 -.00000057  00000+0  74669-5 0  99912 59023  43.0040   6.4234 0001319 275.4293  84.6408 15.27577375145938

JSON: /api/v1/satellites/59023 · /tle

For live sub-satellite position, see the globe view (requires WebGL).

§ Visibility from observer

Set your observer location to see the next 7 days of passes ≥ 10°. The values pass through the URL so the page stays shareable.

No JS? Fill the form by hand. The geolocation button needs JavaScript.